Location: Peterborough
(44.3091°N, 78.3197°W)
Time: 13:29:24
(UTC-04:00)

Vanguard 1 - Pass Details

Date: 26 March 2023
Orbit: 649 x 3832 km, 34.2° (Epoch: 02 June)

Event Time Altitude Azimuth Distance (km) Brightness Sun altitude
Rises 20:34:35 0° 278° (W) 7,850 16.7 -11.7°
Reaches altitude 10° 20:40:43 10° 273° (W) 6,581 15.6 -12.7°
Maximum altitude 20:58:19 42° 212° (SSW) 3,339 12.8 -15.7°
Enters shadow 21:08:28 12° 148° (SSE) 3,964 12.7 -17.4°
